PBD419 URWW-URSS

Flight info

Callsign PBD419
Flight time N/A
Altitude 31000
Route MOLED DCT LIDUS/K0833F340 G242 ZG/K0830F310 DCT ITAKA/K0822F300 DCT OBBUD DCT AMKOL DCT GOTIK DCT MEMZA DCT VENFO DCT BINOL BINOL1K
Aircraft B738/M-SDE2E3FGHIRWXY/LB1

Departure

Time 2026-05-07 18:33
Airport Volgograd International Airport (URWW)

Arrival

Time N/A
Airport Sochi International Airport (URSS)
Time Latitude Longitude Altitude Speed Heading
2026-05-07 18:13 48.78993 44.35171 485 ft 0 kts 340°
2026-05-07 18:27 48.78987 44.35174 478 ft 4 kts 337°
2026-05-07 18:27 48.78964 44.35194 478 ft 4 kts 313°
2026-05-07 18:27 48.78951 44.35227 478 ft 4 kts 272°
2026-05-07 18:27 48.78952 44.35246 485 ft 0 kts 249°
2026-05-07 18:31 48.78947 44.35224 485 ft 8 kts 249°
2026-05-07 18:31 48.78914 44.35120 478 ft 12 kts 220°
2026-05-07 18:31 48.78836 44.35135 482 ft 12 kts 162°
2026-05-07 18:32 48.78760 44.35173 480 ft 12 kts 161°
2026-05-07 18:32 48.78680 44.35213 480 ft 13 kts 162°
2026-05-07 18:32 48.78597 44.35251 485 ft 12 kts 173°
2026-05-07 18:32 48.78538 44.35172 481 ft 15 kts 246°
2026-05-07 18:33 48.78394 44.34723 474 ft 84 kts 244°
2026-05-07 18:33 48.78047 44.33626 462 ft 146 kts 244°
2026-05-07 18:33 48.77554 44.32019 663 ft 182 kts 243°
2026-05-07 18:33 48.76988 44.30290 1482 ft 186 kts 245°
2026-05-07 18:34 48.76380 44.28483 2093 ft 202 kts 246°
2026-05-07 18:34 48.75731 44.26476 2373 ft 225 kts 247°
2026-05-07 18:34 48.75053 44.24293 2900 ft 235 kts 247°
2026-05-07 18:34 48.74141 44.21998 3010 ft 272 kts 228°
2026-05-07 18:35 48.72478 44.20624 3821 ft 277 kts 190°
2026-05-07 18:35 48.70573 44.20872 4701 ft 279 kts 158°
2026-05-07 18:35 48.68965 44.22478 5470 ft 280 kts 131°
2026-05-07 18:35 48.67880 44.24914 6249 ft 280 kts 112°
2026-05-07 18:36 48.67111 44.27638 7008 ft 282 kts 108°
2026-05-07 18:36 48.66420 44.30425 7796 ft 284 kts 107°
2026-05-07 18:36 48.65735 44.33241 8571 ft 286 kts 107°
2026-05-07 18:36 48.65041 44.36059 9342 ft 289 kts 107°
2026-05-07 18:37 48.64319 44.38945 10100 ft 292 kts 107°
2026-05-07 18:37 48.63576 44.41874 10498 ft 309 kts 108°
2026-05-07 18:37 48.62775 44.45013 10677 ft 332 kts 108°
2026-05-07 18:37 48.61909 44.48369 10879 ft 352 kts 108°
2026-05-07 18:38 48.60999 44.51859 11378 ft 361 kts 108°
2026-05-07 18:38 48.60073 44.55386 12096 ft 363 kts 109°
2026-05-07 18:38 48.59132 44.58951 12832 ft 365 kts 109°
2026-05-07 18:38 48.58187 44.62528 13550 ft 368 kts 109°
2026-05-07 18:39 48.57235 44.66126 14188 ft 372 kts 109°
2026-05-07 18:39 48.56269 44.69775 14769 ft 376 kts 109°
2026-05-07 18:39 48.55294 44.73452 15372 ft 379 kts 109°
2026-05-07 18:39 48.54311 44.77153 15984 ft 382 kts 109°
2026-05-07 18:40 48.53311 44.80912 16575 ft 386 kts 109°
2026-05-07 18:40 48.52305 44.84687 17162 ft 389 kts 109°
2026-05-07 18:40 48.51615 44.87276 17565 ft 392 kts 109°
2026-05-07 18:40 48.50597 44.91086 18181 ft 394 kts 109°
2026-05-07 18:41 48.49559 44.94967 18697 ft 397 kts 109°
2026-05-07 18:41 48.48519 44.98845 19202 ft 400 kts 109°
2026-05-07 18:41 48.47470 45.02754 19709 ft 403 kts 109°
2026-05-07 18:41 48.46419 45.06680 20222 ft 405 kts 108°
2026-05-07 18:42 48.45389 45.10677 20719 ft 408 kts 108°
2026-05-07 18:42 48.44346 45.14674 21196 ft 411 kts 108°
2026-05-07 18:42 48.43261 45.18688 21670 ft 415 kts 109°
2026-05-07 18:42 48.42147 45.22706 22139 ft 418 kts 109°
2026-05-07 18:43 48.40951 45.26710 22583 ft 424 kts 117°
2026-05-07 18:43 48.39048 45.30152 22977 ft 435 kts 137°
2026-05-07 18:43 48.36470 45.32595 23467 ft 442 kts 151°
2026-05-07 18:43 48.33705 45.34619 23862 ft 445 kts 152°
2026-05-07 18:44 48.30891 45.36625 24251 ft 447 kts 152°
2026-05-07 18:44 48.28079 45.38622 24652 ft 448 kts 152°
2026-05-07 18:44 48.25259 45.40637 25037 ft 449 kts 152°
2026-05-07 18:44 48.22429 45.42677 25380 ft 452 kts 152°
2026-05-07 18:45 48.19594 45.44735 25715 ft 454 kts 152°
2026-05-07 18:45 48.16743 45.46812 26068 ft 456 kts 152°
2026-05-07 18:45 48.13852 45.48922 26432 ft 457 kts 152°
2026-05-07 18:45 48.10981 45.51018 26781 ft 459 kts 152°
2026-05-07 18:46 48.08114 45.53108 27139 ft 460 kts 152°
2026-05-07 18:46 48.05228 45.55210 27474 ft 462 kts 152°
2026-05-07 18:46 48.02330 45.57317 27789 ft 464 kts 152°
2026-05-07 18:46 47.99419 45.59431 28089 ft 466 kts 153°
2026-05-07 18:47 47.96495 45.61550 28391 ft 468 kts 153°
2026-05-07 18:47 47.93559 45.63676 28682 ft 469 kts 153°
2026-05-07 18:47 47.90653 45.65777 28995 ft 470 kts 153°
2026-05-07 18:47 47.87676 45.67927 29441 ft 468 kts 153°
2026-05-07 18:48 47.84793 45.70005 30036 ft 463 kts 153°
2026-05-07 18:48 47.81904 45.72085 30448 ft 461 kts 153°
2026-05-07 18:48 47.79013 45.74166 30721 ft 462 kts 153°
2026-05-07 18:48 47.76117 45.76246 30965 ft 463 kts 153°
2026-05-07 18:49 47.73218 45.78328 31221 ft 463 kts 153°
2026-05-07 18:49 47.70316 45.80408 31551 ft 462 kts 153°
2026-05-07 18:49 47.67426 45.82477 31919 ft 460 kts 153°
2026-05-07 18:49 47.64551 45.84533 32294 ft 458 kts 153°
2026-05-07 18:50 47.61682 45.86581 32606 ft 457 kts 153°
2026-05-07 18:50 47.58813 45.88628 32866 ft 458 kts 153°
2026-05-07 18:50 47.55945 45.90671 33133 ft 457 kts 153°
2026-05-07 18:50 47.53078 45.92711 33442 ft 456 kts 153°
2026-05-07 18:51 47.50175 45.94774 33760 ft 455 kts 153°
2026-05-07 18:51 47.47356 45.96775 33994 ft 456 kts 153°
2026-05-07 18:51 47.44483 45.98812 33960 ft 459 kts 153°
2026-05-07 18:52 47.38717 46.02893 33967 ft 459 kts 153°
2026-05-07 18:52 47.32961 46.06955 33964 ft 453 kts 153°
2026-05-07 18:53 47.27277 46.10959 33980 ft 452 kts 153°
2026-05-07 18:53 47.21605 46.14945 33982 ft 452 kts 153°
2026-05-07 18:54 47.15928 46.18925 33975 ft 452 kts 153°
2026-05-07 18:54 47.10287 46.22871 33982 ft 452 kts 153°
2026-05-07 18:55 47.05009 46.27751 33985 ft 449 kts 136°
2026-05-07 18:55 47.01124 46.34828 33991 ft 446 kts 121°
2026-05-07 18:56 46.97767 46.42482 33960 ft 448 kts 130°
2026-05-07 18:56 46.95373 46.45377 33990 ft 450 kts 151°
2026-05-07 18:56 46.92440 46.46969 33977 ft 452 kts 168°
2026-05-07 18:56 46.89303 46.47358 33989 ft 454 kts 182°
2026-05-07 18:57 46.86182 46.46685 33967 ft 456 kts 197°
2026-05-07 18:57 46.80456 46.42708 33978 ft 457 kts 207°
2026-05-07 18:58 46.74857 46.38258 33983 ft 459 kts 208°
2026-05-07 18:58 46.69222 46.33822 33986 ft 461 kts 207°
2026-05-07 18:59 46.63551 46.29445 33986 ft 462 kts 207°
2026-05-07 18:59 46.57851 46.25090 33984 ft 464 kts 207°
2026-05-07 19:00 46.52129 46.20734 33999 ft 464 kts 207°
2026-05-07 19:00 46.46402 46.16384 33995 ft 465 kts 207°
2026-05-07 19:01 46.40668 46.12036 33999 ft 465 kts 207°
2026-05-07 19:01 46.34933 46.07697 34016 ft 465 kts 207°
2026-05-07 19:02 46.29199 46.03370 34007 ft 464 kts 207°
2026-05-07 19:02 46.23473 45.99058 34011 ft 464 kts 207°
2026-05-07 19:03 46.17753 45.94763 34013 ft 463 kts 207°
2026-05-07 19:03 46.12037 45.90479 34018 ft 463 kts 207°
2026-05-07 19:04 46.06326 45.86209 34019 ft 462 kts 207°
2026-05-07 19:05 45.94810 45.77631 34027 ft 462 kts 206°
2026-05-07 19:05 45.92882 45.76199 34035 ft 462 kts 206°
2026-05-07 19:06 45.84027 45.69635 34039 ft 463 kts 206°
2026-05-07 19:06 45.75423 45.63280 34052 ft 464 kts 206°
2026-05-07 19:07 45.69679 45.59050 34051 ft 465 kts 206°
2026-05-07 19:07 45.63927 45.54823 34051 ft 465 kts 206°
2026-05-07 19:08 45.58160 45.50596 34055 ft 466 kts 206°
2026-05-07 19:08 45.52393 45.46377 34069 ft 466 kts 206°
2026-05-07 19:09 45.46652 45.42189 34073 ft 469 kts 206°
2026-05-07 19:09 45.40791 45.37923 34075 ft 477 kts 206°
2026-05-07 19:10 45.34813 45.33581 34067 ft 480 kts 206°
2026-05-07 19:10 45.28866 45.29272 34082 ft 480 kts 206°
2026-05-07 19:11 45.22908 45.24965 34080 ft 480 kts 206°
2026-05-07 19:11 45.16951 45.20669 34081 ft 480 kts 206°
2026-05-07 19:12 45.11957 45.17076 34087 ft 480 kts 206°
2026-05-07 19:12 45.05366 45.12344 34095 ft 479 kts 206°
2026-05-07 19:13 44.99425 45.08089 34088 ft 478 kts 206°
2026-05-07 19:13 44.93492 45.03851 34097 ft 478 kts 206°
2026-05-07 19:14 44.87553 44.99618 34101 ft 478 kts 206°
2026-05-07 19:14 44.81608 44.95390 34104 ft 478 kts 206°
2026-05-07 19:15 44.75668 44.91176 34103 ft 478 kts 206°
2026-05-07 19:15 44.69727 44.86970 34110 ft 478 kts 206°
2026-05-07 19:16 44.63779 44.82770 34120 ft 478 kts 206°
2026-05-07 19:16 44.57839 44.78585 34111 ft 477 kts 206°
2026-05-07 19:17 44.51910 44.74416 34114 ft 476 kts 206°
2026-05-07 19:17 44.45976 44.70255 34114 ft 476 kts 206°
2026-05-07 19:18 44.40054 44.66111 34118 ft 476 kts 205°
2026-05-07 19:18 44.34126 44.61972 34116 ft 476 kts 205°
2026-05-07 19:19 44.22480 44.53868 34129 ft 474 kts 206°
2026-05-07 19:20 44.10375 44.45483 34118 ft 472 kts 205°
2026-05-07 19:21 44.05449 44.42082 34123 ft 471 kts 205°
2026-05-07 19:21 43.98942 44.37599 34122 ft 471 kts 205°
2026-05-07 19:22 43.87108 44.29473 34119 ft 470 kts 205°
2026-05-07 19:23 43.81240 44.25458 34120 ft 470 kts 205°
2026-05-07 19:23 43.75370 44.21448 34123 ft 471 kts 205°
2026-05-07 19:24 43.69495 44.17424 34121 ft 471 kts 208°
2026-05-07 19:24 43.66883 44.14700 34122 ft 472 kts 228°
2026-05-07 19:24 43.65008 44.11001 34118 ft 473 kts 244°
2026-05-07 19:25 43.63868 44.06744 34133 ft 475 kts 258°
2026-05-07 19:25 43.63561 44.02201 34131 ft 477 kts 272°
2026-05-07 19:25 43.63886 43.92127 34112 ft 482 kts 274°
2026-05-07 19:26 43.64011 43.89002 34108 ft 483 kts 274°